Location: アルンシュタイン
(50.0000°N, 10.0000°E)
Time: 10:37:52
(UTC+01:00)

Envisat - Pass Details

Date: 26 September 2023
Orbit: 762 x 764 km, 98.3° (Epoch: 07 December)

Event Time Altitude Azimuth Distance (km) Brightness Sun altitude
Rises 05:47:53 0° 10° (N) 3,245 6.6 -14.1°
Reaches altitude 10° 05:50:15 10° 5° (N) 2,314 5.7 -13.8°
Maximum altitude 05:55:08 48° 292° (WNW) 993 3.3 -13.0°
Drops below altitude 10° 06:00:00 10° 219° (SW) 2,299 5.0 -12.3°
Enters shadow 06:00:08 - 218° (SW) 2,349 5.1 -12.2°
